Theta_e
298 300 305 299 300 303 292 287 294 298 304 308 311 312 316 318 320 321 324 325 326 328 330 330 332 333 334 338 339 342 343 344
298 299 297 301 304 293 289 287 287 290 295 300 307 308 313 315 318 319 322 325 326 328 330 331 333 333 334 339 340 343 344 345
293 292 293 294 293 290 290 289 287 286 291 304 308 309 309 316 318 320 322 324 326 328 331 332 334 334 334 338 341 342 344 345
294 294 295 295 295 292 289 287 285 287 291 303 308 308 311 315 318 320 324 324 327 329 330 332 333 334 335 338 341 343 345 346
292 293 293 293 293 290 289 288 286 288 293 300 298 303 311 314 316 318 322 322 325 328 330 332 334 336 337 340 342 344 346 346
290 292 294 292 294 292 291 288 287 289 295 297 300 303 308 313 315 316 320 323 324 328 329 332 336 338 339 340 342 345 346 347
297 299 297 298 297 293 292 292 292 295 293 299 300 302 306 313 314 317 318 321 323 326 330 332 334 337 340 341 342 345 347 347
296 300 297 297 299 295 295 293 294 293 293 299 303 303 305 308 313 315 317 321 324 326 331 331 333 336 339 340 342 345 347 348
292 298 297 294 299 298 300 296 298 295 299 301 300 303 305 308 311 313 315 321 323 325 329 331 333 336 338 341 344 345 346 348
292 295 289 298 301 303 303 304 298 299 300 302 303 304 306 308 311 313 315 320 324 326 329 332 335 337 341 343 344 345 346 347
293 293 298 303 307 307 304 305 307 303 305 304 310 320 317 322 316 316 319 322 324 328 330 333 335 339 341 343 344 345 345 346
294 293 293 304 308 315 308 300 313 315 314 313 315 304 308 324 328 322 325 325 324 328 329 334 338 341 342 342 344 344 345 347
296 294 299 309 316 315 297 301 315 318 318 317 310 309 313 328 334 330 327 327 326 328 329 335 340 342 341 342 342 346 347 347
297 294 295 316 316 307 309 317 318 317 317 317 314 320 330 335 336 336 333 330 328 326 328 334 341 341 340 341 344 346 346 346
298 299 311 315 316 319 320 318 318 318 319 319 319 328 334 335 336 335 333 334 333 327 327 332 339 341 339 342 344 344 345 344
303 308 312 314 319 321 321 321 322 321 322 322 321 332 336 336 333 331 331 331 336 329 329 329 336 340 341 342 344 343 343 344
303 307 309 319 317 319 320 323 323 323 327 330 327 325 337 335 334 331 333 338 343 334 331 333 335 337 339 341 344 343 344 344
298 306 308 312 319 320 321 321 322 322 323 327 336 333 338 333 333 338 341 344 345 343 334 337 339 339 342 346 346 345 344 345
303 308 316 318 319 323 322 322 323 322 322 324 331 337 340 337 339 336 345 346 346 346 344 345 345 345 348 348 347 346 345 347
Wind_Speed
5 6 11 6 4 6 8 3 1 5 9 12 9 5 4 8 8 11 14 16 18 17 18 18 17 18 17 14 14 13 14 10
6 4 4 7 7 4 3 4 5 6 7 8 9 13 6 8 10 9 11 14 14 15 17 17 17 18 16 15 16 14 13 11
3 5 10 1 0 5 6 5 8 4 9 10 13 12 7 10 9 10 11 15 16 16 16 17 15 15 15 14 14 12 12 10
12 3 2 6 9 8 7 6 3 3 9 8 13 7 7 8 9 9 10 13 14 17 16 15 16 15 16 14 14 14 13 11
9 8 1 5 6 5 4 4 8 6 11 3 7 8 8 9 8 8 7 8 11 11 15 17 17 16 15 14 15 12 12 11
8 8 2 5 6 7 7 5 6 8 10 8 9 8 6 8 8 8 10 10 10 13 14 16 16 15 14 14 13 12 13 12
8 9 7 8 6 8 6 7 7 11 12 13 12 11 10 5 6 7 8 10 13 15 15 15 15 13 12 11 12 13 13 13
5 6 2 6 10 10 5 3 8 1 8 13 11 4 5 12 10 9 8 11 12 14 15 15 15 15 14 12 12 13 13 13
5 6 7 3 9 9 7 6 7 5 14 2 6 10 10 11 9 11 13 13 13 17 18 17 17 15 16 14 12 14 13 12
4 5 3 9 6 3 9 6 9 6 9 7 10 7 9 6 8 9 10 13 12 12 13 15 14 15 11 13 14 14 13 12
3 3 7 6 3 3 4 7 7 7 8 7 3 1 6 7 9 11 10 10 14 16 17 13 15 13 13 13 13 13 14 14
3 5 4 2 9 13 8 5 8 11 14 5 4 3 9 6 7 8 7 8 9 10 9 12 12 14 14 14 14 15 15 16
4 4 7 3 18 4 3 6 18 14 15 6 8 6 6 6 5 6 7 9 10 12 14 14 15 16 16 15 17 18 15 13
2 2 6 6 6 4 6 9 14 13 11 8 8 6 2 4 4 4 7 9 10 12 12 13 15 16 16 17 18 13 12 13
7 5 3 1 3 2 4 12 10 12 18 17 4 3 2 3 4 3 6 6 6 7 7 9 15 16 17 18 12 13 13 13
3 1 3 3 2 1 8 11 14 14 17 15 5 4 2 2 3 4 5 4 2 6 8 9 10 14 16 8 11 15 15 14
5 5 10 4 9 11 17 13 12 13 12 11 6 5 5 3 2 4 4 3 2 3 6 8 10 11 8 9 12 13 12 11
4 1 3 10 11 18 14 16 13 12 15 11 10 6 3 6 4 3 6 5 4 2 6 7 9 9 9 12 13 12 11 9
2 4 5 12 15 14 11 13 13 10 12 11 11 11 12 6 9 9 8 7 6 6 4 4 6 9 10 12 12 12 11 9
Wind_Direction
188 158 144 184 162 178 102 22 78 223 283 302 282 319 175 195 190 190 185 185 193 183 180 181 183 185 191 184 193 189 197 186
258 101 69 155 164 85 13 147 233 285 288 248 289 283 192 209 206 208 188 189 191 184 184 184 186 186 188 183 187 187 189 184
132 180 168 39 151 57 120 133 168 211 258 224 244 249 247 226 208 203 189 186 187 186 186 185 182 183 186 182 182 178 184 184
208 193 180 170 193 149 131 239 238 196 262 229 235 248 242 227 214 200 189 177 188 187 173 173 180 186 181 179 183 185 178 175
332 352 21 197 193 139 119 100 193 143 263 333 283 267 257 231 208 201 185 175 178 179 178 180 183 185 181 177 188 181 166 171
203 211 180 178 188 190 127 114 171 219 265 283 276 270 269 237 231 195 168 169 178 180 187 185 186 184 180 182 179 170 167 172
248 255 205 228 191 179 153 184 165 240 198 248 237 243 241 244 177 172 175 173 183 182 186 186 182 183 187 177 170 163 170 173
296 351 310 242 231 180 226 155 271 195 270 232 257 280 254 258 162 177 192 192 188 180 185 185 180 180 177 172 165 161 175 178
274 338 320 303 205 179 203 195 156 166 235 77 245 239 236 239 207 192 181 187 187 188 186 181 180 177 179 172 158 168 175 171
246 357 254 244 308 216 207 199 204 269 259 218 235 247 271 225 212 211 176 192 197 187 184 188 177 181 169 158 166 170 173 172
180 193 284 326 23 356 244 249 187 231 273 260 233 158 293 219 213 214 183 187 194 186 178 168 170 166 158 162 167 170 176 180
133 161 199 244 319 323 325 270 25 337 297 297 199 133 253 213 203 207 187 157 160 158 139 159 163 156 157 167 170 181 182 188
164 214 272 25 311 351 145 261 323 330 297 232 225 210 289 157 199 187 166 147 139 149 167 171 160 160 169 173 186 193 185 178
140 149 245 347 14 45 280 302 301 330 313 259 247 302 291 105 113 114 125 141 155 158 165 166 166 166 173 187 193 180 175 177
180 220 200 319 164 229 303 291 298 314 307 302 215 210 142 98 95 114 117 112 150 150 156 175 173 177 181 205 170 164 170 178
6 29 273 259 68 348 328 307 307 305 295 295 249 162 99 121 98 73 68 75 72 159 171 176 181 194 204 165 163 165 175 181
283 325 334 109 4 339 330 327 311 328 322 329 307 207 173 157 73 47 50 80 93 193 200 201 183 193 175 162 161 172 175 171
223 331 253 282 316 323 323 318 321 335 340 344 358 21 20 30 19 15 23 21 10 303 238 209 183 169 160 159 165 166 167 168
248 327 243 281 298 296 317 315 328 339 343 341 24 48 51 63 35 11 8 13 346 294 260 205 170 162 161 157 158 170 172 170